Location: Nora Junction
(43.1400°N, 93.0163°W)
Time: 02:29:16
(UTC+00:00)

IGS 5A - Pass Details

Date: 18 November 2025
Orbit: 549 x 559 km, 97.4° (Epoch: 02 December)

Event Time Altitude Azimuth Distance (km) Brightness Sun altitude
Rises 12:19:02 0° 10° (N) 2,734 6.8 -9.3°
Reaches altitude 10° 12:21:10 10° 8° (N) 1,837 5.9 -8.9°
Maximum altitude 12:25:08 73° 284° (WNW) 582 3.3 -8.2°
Drops below altitude 10° 12:29:04 10° 200° (SSW) 1,828 6.0 -7.6°
Sets 12:31:11 0° 198° (SSW) 2,719 6.9 -7.2°
